This is the latest recevied weather packets stored in our database for station/object WX7FGZ-3. If no packets are shown the sender has not sent any weather packets the latest 10 day(s).
| Time | Temp. | Humidity | Pressure | Rain* | Wind** | Luminosity | Snow |
|---|---|---|---|---|---|---|---|
| 1777727486 | 1.67° C | 62% | 1019 hPa | 0 mm | - | - | - |
| 1777727185 | 1.11° C | 61% | 1019.1 hPa | 0 mm | - | - | - |
| 1777726885 | 1.11° C | 63% | 1018.9 hPa | 0 mm | - | - | - |
| 1777726585 | 0.56° C | 65% | 1018.9 hPa | 0 mm | - | - | - |
| 1777726285 | 0.56° C | 65% | 1018.9 hPa | 0 mm | - | - | - |
| 1777725684 | -0.56° C | 65% | 1018.9 hPa | 0 mm | - | - | - |
| 1777725384 | -0.56° C | 65% | 1018.9 hPa | 0 mm | - | - | - |
| 1777725083 | -0.56° C | 64% | 1019 hPa | 0 mm | - | - | - |
| 1777724783 | 0° C | 64% | 1018.9 hPa | 0 mm | - | - | - |
| 1777724483 | 0° C | 64% | 1018.8 hPa | 0 mm | - | - | - |
| 1777724183 | 0° C | 63% | 1018.7 hPa | 0 mm | - | - | - |
| 1777723883 | 0° C | 63% | 1018.8 hPa | 0 mm | - | - | - |
| 1777723582 | 0° C | 62% | 1018.7 hPa | 0 mm | - | - | - |
| 1777723282 | 0.56° C | 62% | 1018.7 hPa | 0 mm | - | - | - |
| 1777722982 | 0.56° C | 62% | 1018.5 hPa | 0 mm | - | - | - |
| 1777722681 | 0.56° C | 61% | 1018.5 hPa | 0 mm | - | - | - |
| 1777722381 | 1.11° C | 60% | 1018.6 hPa | 0 mm | - | - | - |
| 1777722081 | 1.11° C | 60% | 1018.7 hPa | 0 mm | - | - | - |
| 1777721781 | 1.11° C | 60% | 1018.6 hPa | 0 mm | - | - | - |
| 1777721480 | 1.11° C | 60% | 1018.6 hPa | 0 mm | - | - | - |
| 1777721180 | 1.11° C | 59% | 1018.6 hPa | 0 mm | - | - | - |
| 1777720879 | 1.11° C | 59% | 1018.6 hPa | 0 mm | - | - | - |
| 1777720279 | 1.11° C | 59% | 1018.5 hPa | 0 mm | - | - | - |
| 1777719979 | 1.11° C | 59% | 1018.6 hPa | 0 mm | - | - | - |
| 1777719678 | 1.11° C | 59% | 1018.5 hPa | 0 mm | - | - | - |
* Rain latest hour (hover to see other rain measurements)
** Current wind speed in m/s (hover to see current wind gust speed)